| time (UTC) | temp C | wind direction | speed KPH | gust KPH | rain 1hr cm | rain 24hr cm | rain mn cm | humidity % | barometer mb |
| 20260504081553 | 12 | 146 | 1.6 | 4.8 | 0.00 | 0.00 | 0.00 | 5 | 982.2 |
| 20260504050022 | 15 | 138 | 1.6 | 6.4 | 0.00 | 0.00 | 0.00 | 58 | 983.7 |
| 20260504044516 | 15 | 149 | 3.2 | 8.0 | 0.00 | 0.00 | 0.00 | 58 | 983.9 |
| 20260504043015 | 15 | 140 | 4.8 | 9.7 | 0.00 | 0.00 | 0.00 | 59 | 983.9 |
| 20260504041517 | 15 | 163 | 1.6 | 3.2 | 0.00 | 0.00 | 0.00 | 61 | 984.2 |
| 20260504040011 | 15 | 163 | 3.2 | 4.8 | 0.00 | 0.00 | 0.00 | 62 | 984.3 |
| 20260504034514 | 14 | 165 | 3.2 | 4.8 | 0.00 | 0.00 | 0.00 | 64 | 984.5 |
| 20260504033013 | 15 | 165 | 1.6 | 4.8 | 0.00 | 0.00 | 0.00 | 64 | 984.4 |
| 20260504031510 | 15 | 165 | 1.6 | 4.8 | 0.00 | 0.00 | 0.00 | 63 | 984.4 |
| 20260504030009 | 15 | 165 | 1.6 | 3.2 | 0.00 | 0.00 | 0.00 | 64 | 984.6 |
| 20260504024509 | 16 | 165 | 3.2 | 4.8 | 0.00 | 0.00 | 0.00 | 63 | 984.6 |
| 20260504023008 | 16 | 165 | 3.2 | 4.8 | 0.00 | 0.00 | 0.00 | 62 | 984.5 |
| 20260504021507 | 16 | 165 | 3.2 | 6.4 | 0.00 | 0.00 | 0.00 | 63 | 984.5 |
| 20260504020012 | 17 | 188 | 1.6 | 4.8 | 0.00 | 0.00 | 0.00 | 57 | 984.4 |
| 20260504014511 | 17 | 188 | 0.0 | 8.0 | 0.00 | 0.00 | 0.00 | 57 | 984.4 |
| 20260504013006 | 18 | 232 | 3.2 | 6.4 | 0.00 | 0.00 | 0.00 | 55 | 984.3 |
| 20260504011505 | 18 | 244 | 3.2 | 6.4 | 0.00 | 0.00 | 0.00 | 55 | 984.2 |
| 20260504010005 | 18 | 248 | 3.2 | 8.0 | 0.00 | 0.00 | 0.00 | 54 | 984.1 |
| 20260504004515 | 19 | 245 | 4.8 | 12.9 | 0.00 | 0.00 | 0.00 | 54 | 984.1 |
| 20260504003005 | 19 | 257 | 3.2 | 11.3 | 0.00 | 0.00 | 0.00 | 56 | 984.2 |
| 20260504001505 | 20 | 263 | 8.0 | 14.5 | 0.00 | 0.00 | 0.00 | 54 | 984.1 |
| 20260504000004 | 20 | 270 | 8.0 | 19.3 | 0.00 | 0.00 | 0.00 | 53 | 983.9 |
| 20260503234503 | 20 | 266 | 11.3 | 14.5 | 0.00 | 0.00 | 0.00 | 53 | 984.3 |
| 20260503233011 | 21 | 248 | 9.7 | 17.7 | 0.00 | 0.00 | 0.00 | 51 | 984.1 |
| 20260503231502 | 21 | 261 | 16.1 | 22.5 | 0.00 | 0.00 | 0.00 | 50 | 984.5 |
| 20260503230002 | 21 | 263 | 9.7 | 20.9 | 0.00 | 0.00 | 0.00 | 49 | 984.1 |
| 20260503224600 | 21 | 246 | 11.3 | 17.7 | 0.00 | 0.00 | 0.00 | 46 | 984.0 |
| 20260503223059 | 21 | 238 | 11.3 | 20.9 | 0.00 | 0.00 | 0.00 | 46 | 984.2 |
| 20260503221600 | 21 | 229 | 17.7 | 27.4 | 0.00 | 0.00 | 0.00 | 45 | 984.1 |
| 20260503220053 | 21 | 213 | 12.9 | 25.7 | 0.00 | 0.00 | 0.00 | 44 | 984.3 |
| 20260503214550 | 20 | 222 | 12.9 | 20.9 | 0.00 | 0.00 | 0.00 | 44 | 984.3 |
| 20260503213048 | 20 | 192 | 11.3 | 22.5 | 0.00 | 0.00 | 0.00 | 45 | 984.5 |
| 20260503211546 | 20 | 217 | 22.5 | 30.6 | 0.00 | 0.00 | 0.00 | 44 | 984.6 |
| 20260503210045 | 20 | 192 | 16.1 | 32.2 | 0.00 | 0.00 | 0.00 | 45 | 984.9 |
| 20260503204545 | 20 | 202 | 19.3 | 27.4 | 0.00 | 0.00 | 0.00 | 44 | 984.9 |
| 20260503203053 | 19 | 207 | 19.3 | 37.0 | 0.00 | 0.00 | 0.00 | 44 | 985.2 |
| 20260503201540 | 19 | 205 | 19.3 | 41.8 | 0.00 | 0.00 | 0.00 | 44 | 985.6 |
| 20260503200039 | 19 | 200 | 17.7 | 32.2 | 0.00 | 0.00 | 0.00 | 44 | 986.3 |
| 20260503194541 | 19 | 198 | 24.1 | 40.2 | 0.00 | 0.00 | 0.00 | 44 | 986.1 |
| 20260503193038 | 18 | 193 | 17.7 | 30.6 | 0.00 | 0.00 | 0.00 | 46 | 986.4 |
| 20260503191537 | 18 | 188 | 25.7 | 40.2 | 0.00 | 0.00 | 0.00 | 42 | 985.9 |
| 20260503190033 | 18 | 210 | 24.1 | 41.8 | 0.00 | 0.00 | 0.00 | 42 | 986.7 |
| 20260503184531 | 20 | 183 | 27.4 | 40.2 | 0.00 | 0.00 | 0.00 | 41 | 987.1 |
| 20260503183028 | 18 | 205 | 25.7 | 41.8 | 0.00 | 0.00 | 0.00 | 44 | 987.3 |
| 20260503181527 | 18 | 165 | 24.1 | 48.3 | 0.00 | 0.00 | 0.00 | 45 | 987.3 |
| 20260503180024 | 18 | 170 | 27.4 | 43.5 | 0.00 | 0.00 | 0.00 | 45 | 988.0 |
| 20260503174521 | 18 | 200 | 25.7 | 37.0 | 0.00 | 0.00 | 0.00 | 45 | 988.7 |
| 20260503173017 | 18 | 225 | 22.5 | 37.0 | 0.00 | 0.00 | 0.00 | 46 | 988.9 |
| 20260503171513 | 17 | 217 | 19.3 | 30.6 | 0.00 | 0.00 | 0.00 | 51 | 989.4 |